User: anonymous   Login
Location: Iesi
(43.5167°N, 13.2333°E)
Time: 16:02:00
(UTC+00:00)
Language:

ERBS - Orbit

View from above orbital plane
View from above orbital plane
View from above satellite
View from above satellite

Ground track
Ground track

The orbit data is extracted from the following two-line orbital elements,

1 15354U 84108B   20296.20454658  .00004619  00000-0  87775-4 0  9990
2 15354  57.0054 244.9019 0004458 322.7344  37.3404 15.50320227987480
Epoch (UTC): 22 October 2020 04:54:32
Eccentricity: 0.0004458
inclination: 57.0054°
perigee height: 413 km
apogee height: 419 km
right ascension of ascending node: 244.9019°
argument of perigee: 322.7344°
revolutions per day: 15.50320227
mean anomaly at epoch: 37.3404°
orbit number at epoch: 98748

The dashed part of the orbit path shows where the satellite is in the earth's shadow,  

DLR